Torna al catalogo

STARLINK-35025

AttivoComunicazioniVLEO
NORAD 65430·PAYLOAD·🇺🇸 United States

Lanciato Aug 31, 2025 da Cape Canaveral Space Force Station

Loading…

Prossimi Passaggi (prossime 24 ore)

TLE

AggiornatoSource: CelesTrak SupGP

Epoca: Sep 15, 2026, 03:14 UTC

1 65430C 25192AC  26258.13520833 -.00024830  00000+0 -73379-3 0  2583
2 65430  53.1570  68.9262 0001166  92.4235  66.3396 15.34395110    19

Traccia STARLINK-35025 in tempo reale con AllMySat

Download on the App Store